Roanoke, VA

12:30 PM EDT on October 14, 2019 (GMT -0400)
Roanoke Regional-Woodrum

Weather History for KROA - August, 2019

Change the Weather History Date:

Wednesday, August 28, 2019

  Actual Average Record
Temperature  
Mean Temperature 77 °F 74 °F  
Max Temperature 86 °F 84 °F 98 °F (1948)
Min Temperature 67 °F 63 °F 49 °F (1968)
Degree Days  
Heating Degree Days 0 0  
Month to date heating degree days 0 0  
Since 1 June heating degree days 0 11  
Since 1 July heating degree days 0 0  
Cooling Degree Days 12 9  
Month to date cooling degree days 356 296  
Year to date cooling degree days 1339 1019  
Since 1 June cooling degree days 1060 903  
Growing Degree Days 27 (Base 50)    
Moisture  
Dew Point 63 °F    
Average Humidity 67    
Maximum Humidity 97    
Minimum Humidity 37    
Precipitation  
Precipitation T in 0.12 in 1.60 in (1949)
Month to date precipitation 3.13 3.20  
Year to date precipitation 30.70 27.77  
Snow  
Snow 0.00 in - - ()
Month to date snowfall 0.0  
Since 1 June snowfall T  
Since 1 July snowfall T  
Snow Depth 0.00 in    
Sea Level Pressure  
Sea Level Pressure 29.94 in    
Wind  
Wind Speed 6 mph (WNW)    
Max Wind Speed 20 mph    
Max Gust Speed 26 mph    
Visibility 10 miles    
Events Rain    
T = Trace of Precipitation, MM = Missing Value Source: NWS Daily Summary

Daily Weather History Graph

Daily Weather History Graph

Search for Another Location

Airport or City:

Astronomy

Aug. 28, 2019 Rise Set
Actual Time 6:46 AM EDT 7:54 PM EDT
Civil Twilight 6:19 AM EDT 8:21 PM EDT
Nautical Twilight 5:47 AM EDT 8:53 PM EDT
Astronomical Twilight 5:14 AM EDT 9:26 PM EDT
Moon 4:21 AM EDT (8/28) 7:02 PM EDT (8/28)
Length of Visible Light 14h 01m
Length of Day
13h 07m
Waning Crescent, 5% of the Moon is Illuminated
Aug 28
Waning Crescent
Aug 30
New
Sep 5
First Quarter
Sep 14
Full
Sep 21
Last Quarter

Hourly Weather History & Observations

Time (EDT) Temp. Heat Index Dew Point Humidity Pressure Visibility Wind Dir Wind Speed Gust Speed Precip Events Conditions
12:54 AM 70.0 °F - 66.9 °F 90% 29.98 in 10.0 mi ESE 4.6 mph - N/A   Overcast
1:18 AM 70.0 °F - 66.9 °F 90% 30.00 in 10.0 mi ESE 4.6 mph - N/A   Overcast
1:54 AM 69.1 °F - 66.9 °F 93% 29.96 in 10.0 mi SE 3.5 mph - N/A   Mostly Cloudy
2:28 AM 69.1 °F - 66.9 °F 93% 29.98 in 10.0 mi Calm Calm - N/A   Overcast
2:54 AM 70.0 °F - 66.9 °F 90% 29.95 in 10.0 mi Calm Calm - N/A   Overcast
3:38 AM 69.1 °F - 66.9 °F 93% 29.97 in 10.0 mi SE 3.5 mph - N/A   Overcast
3:54 AM 69.1 °F - 66.9 °F 93% 29.94 in 10.0 mi Calm Calm - N/A   Overcast
4:41 AM 69.1 °F - 66.9 °F 93% 29.96 in 10.0 mi Calm Calm - N/A   Overcast
4:54 AM 69.1 °F - 66.9 °F 93% 29.94 in 10.0 mi Calm Calm - N/A   Overcast
5:27 AM 69.8 °F - 68.0 °F 94% 29.96 in 10.0 mi Calm Calm - N/A   Overcast
5:54 AM 69.1 °F - 66.9 °F 93% 29.94 in 10.0 mi SE 4.6 mph - N/A   Overcast
6:11 AM 69.1 °F - 66.9 °F 93% 29.97 in 10.0 mi ESE 3.5 mph - N/A   Overcast
6:54 AM 69.1 °F - 66.9 °F 93% 29.94 in 10.0 mi Calm Calm - N/A   Overcast
7:54 AM 70.0 °F - 68.0 °F 93% 29.94 in 9.0 mi Calm Calm - N/A   Scattered Clouds
8:01 AM 70.0 °F - 68.0 °F 93% 29.97 in 10.0 mi South 3.5 mph - N/A   Mostly Cloudy
8:54 AM 73.0 °F - 66.9 °F 81% 29.93 in 10.0 mi West 4.6 mph - N/A   Mostly Cloudy
9:27 AM 73.0 °F - 66.9 °F 81% 29.97 in 10.0 mi WNW 3.5 mph - N/A   Mostly Cloudy
9:54 AM 75.0 °F - 68.0 °F 79% 29.94 in 10.0 mi NNE 5.8 mph - N/A   Overcast
10:17 AM 73.9 °F - 66.9 °F 79% 29.97 in 10.0 mi West 3.5 mph - N/A   Overcast
10:54 AM 73.9 °F - 68.0 °F 82% 29.94 in 10.0 mi NNW 3.5 mph - 0.00 in Rain Light Rain
11:54 AM 75.0 °F - 68.0 °F 79% 29.94 in 10.0 mi WSW 6.9 mph - 0.00 in   Mostly Cloudy
12:54 PM 80.1 °F 82.3 °F 66.9 °F 64% 29.93 in 10.0 mi NW 10.4 mph - N/A   Scattered Clouds
1:54 PM 82.0 °F 82.7 °F 61.0 °F 49% 29.91 in 10.0 mi NW 16.1 mph 20.7 mph N/A   Partly Cloudy
2:54 PM 84.0 °F 84.0 °F 60.1 °F 44% 29.90 in 10.0 mi WNW 10.4 mph 23.0 mph N/A   Scattered Clouds
3:54 PM 84.9 °F 84.2 °F 57.9 °F 40% 29.89 in 10.0 mi NW 11.5 mph - N/A   Scattered Clouds
4:54 PM 84.9 °F 83.7 °F 55.9 °F 37% 29.88 in 10.0 mi NW 16.1 mph 21.9 mph N/A   Partly Cloudy
5:54 PM 84.0 °F 83.0 °F 55.9 °F 38% 29.90 in 10.0 mi NW 13.8 mph - N/A   Partly Cloudy
6:54 PM 82.0 °F 81.2 °F 53.1 °F 37% 29.91 in 10.0 mi WNW 9.2 mph - N/A   Partly Cloudy
7:54 PM 79.0 °F - 51.1 °F 38% 29.92 in 10.0 mi NW 11.5 mph - N/A   Partly Cloudy
8:54 PM 75.0 °F - 52.0 °F 44% 29.95 in 10.0 mi WNW 4.6 mph - N/A   Partly Cloudy
9:54 PM 72.0 °F - 54.0 °F 53% 29.97 in 10.0 mi NW 10.4 mph - N/A   Clear
10:54 PM 70.0 °F - 54.0 °F 57% 29.99 in 10.0 mi NNW 8.1 mph - N/A   Clear
11:54 PM 71.1 °F - 52.0 °F 51% 29.99 in 10.0 mi Calm Calm - N/A   Clear